HJ-2B (46479 NORAD) Tracking and Keplerian Element Data

This shows tracking and keplerian element data for the satellite.

Feedback or suggestion? Click here.




ElementValue
Catalog46479
NameHJ-2B
Epoch Orbit471
Epoch Day303.08513387
Epoch Year2020
RAAN18.2805
Inclination98.0461
Eccentricity0.002367
Argument of Perigee268.5498
Mean Anonmoly91.2997
Mean Motion14.76915321
Decay Rate7.8E-07
L11 46479U 20067B 20303.08513387 .00000078 00000-0 18626-4 0 9990
L22 46479 98.0461 18.2805 0023670 268.5498 91.2997 14.76915321 4712

Live tracking and technical data element details for HJ-2B (NORAD 46479). HJ-2B can be tracked NOW for your location showing map with azimuth and elevation plus other details from your city location.

Track the satellite on the map from your city or location and see movement details for azimuth, elevation, latitude, longitude, range, height, and movement on the map or in text.







IsCatalogInMostPopularTable: catalog: 46479, numindb: 4
Update: records affected: 1



GetName: 46479 HJ-2B

Hit Count: updated at: Fri, 30 Oct 2020 02:11:25 GMT